Weather History for Graham, TX

Change the Weather History Date:

Monday, November 4, 2013

  Actual Average (KMWL) Record (KMWL)
Temperature  
Mean Temperature 62 °F -  
Max Temperature 67 °F 67 °F 84 °F (2003)
Min Temperature 57 °F 47 °F 26 °F (2011)
Degree Days  
Heating Degree Days 3    
Growing Degree Days 12 (Base 50)    
Moisture  
Dew Point 52 °F    
Average Humidity 72    
Maximum Humidity 92    
Minimum Humidity 49    
Precipitation  
Precipitation 0.00 in - - ()
Sea Level Pressure  
Sea Level Pressure 29.97 in    
Wind  
Wind Speed 9 mph (SE)    
Max Wind Speed 14 mph    
Max Gust Speed 21 mph    
Visibility 10 miles    
Events      
Averages and records for this station are not official NWS values.
T = Trace of Precipitation, MM = Missing Value Source: NWS Daily Summary

Daily Weather History Graph

Daily Weather History Graph

Search for Another Location

Airport:

Trip Planner

Search our weather history database for the weather conditions in past years. The results will help you decide how hot, cold, wet, or windy it might be!

Date:

Astronomy

Nov. 04, 2013 Rise Set
Actual Time 6:55 AM CST 5:39 PM CST
Civil Twilight 6:29 AM CST 6:05 PM CST
Nautical Twilight 6:00 AM CST 6:34 PM CST
Astronomical Twilight 5:31 AM CST 7:03 PM CST
Moon 8:04 AM CST (11/4) 6:49 PM CST (11/4)
Length of Visible Light 11h 36m
Length of Day
10h 44m
New Moon, 2% of the Moon is Illuminated
Nov 4
New Moon
Nov 9
First Quarter
Nov 17
Full
Nov 25
Last Quarter
Dec 2
New

Hourly Weather History & Observations

Time (CST) Temp. Dew Point Humidity Pressure Visibility Wind Dir Wind Speed Gust Speed Precip Events Conditions
12:15 AM 59.0 °F 40.3 °F 50% 29.96 in 10.0 mi SSE 6.9 mph - N/A   Overcast
12:35 AM 59.0 °F 40.5 °F 50% 29.96 in 10.0 mi SSE 6.9 mph - N/A   Overcast
12:55 AM 58.6 °F 40.1 °F 50% 29.95 in 10.0 mi SSE 8.1 mph - N/A   Mostly Cloudy
1:15 AM 58.6 °F 39.7 °F 49% 29.95 in 10.0 mi SSE 8.1 mph - N/A   Scattered Clouds
1:35 AM 58.5 °F 39.4 °F 49% 29.93 in 10.0 mi SE 8.1 mph - N/A   Scattered Clouds
1:55 AM 57.9 °F 40.1 °F 52% 29.93 in 10.0 mi SE 6.9 mph - N/A   Clear
2:15 AM 57.6 °F 40.1 °F 52% 29.93 in 10.0 mi SE 6.9 mph - N/A   Clear
2:35 AM 57.7 °F 40.3 °F 52% 29.93 in 10.0 mi SE 6.9 mph - N/A   Clear
2:55 AM 57.6 °F 40.5 °F 53% 29.93 in 10.0 mi SE 9.2 mph - N/A   Clear
3:15 AM 58.1 °F 41.4 °F 54% 29.93 in 10.0 mi SE 8.1 mph - N/A   Scattered Clouds
3:35 AM 58.1 °F 42.4 °F 56% 29.93 in 10.0 mi SE 6.9 mph - N/A   Mostly Cloudy
3:55 AM 57.6 °F 43.5 °F 59% 29.92 in 10.0 mi SE 9.2 mph - N/A   Scattered Clouds
4:15 AM 57.2 °F 44.6 °F 63% 29.92 in 10.0 mi SE 8.1 mph 16.1 mph N/A   Scattered Clouds
4:35 AM 57.6 °F 45.7 °F 65% 29.92 in 10.0 mi SE 10.4 mph - N/A   Clear
4:55 AM 57.6 °F 46.4 °F 66% 29.92 in 10.0 mi SE 10.4 mph - N/A   Clear
5:15 AM 57.4 °F 46.9 °F 68% 29.93 in 10.0 mi SE 6.9 mph - N/A   Clear
5:35 AM 57.2 °F 47.3 °F 69% 29.92 in 10.0 mi SE 9.2 mph - N/A   Clear
5:55 AM 57.2 °F 48.0 °F 71% 29.93 in 10.0 mi SE 8.1 mph - N/A   Clear
6:15 AM 57.0 °F 48.4 °F 73% 29.93 in 10.0 mi SE 9.2 mph 16.1 mph N/A   Clear
6:35 AM 57.2 °F 49.1 °F 74% 29.93 in 10.0 mi SSE 11.5 mph - N/A   Clear
6:55 AM 57.2 °F 49.8 °F 76% 29.94 in 10.0 mi SE 10.4 mph 18.4 mph N/A   Clear
7:15 AM 57.2 °F 50.2 °F 77% 29.96 in 10.0 mi SE 6.9 mph - N/A   Clear
7:35 AM 57.4 °F 50.9 °F 79% 29.96 in 10.0 mi SE 10.4 mph 16.1 mph N/A   Clear
7:55 AM 57.6 °F 51.4 °F 80% 29.97 in 10.0 mi SE 8.1 mph - N/A   Clear
8:15 AM 57.9 °F 51.8 °F 80% 29.97 in 10.0 mi SE 12.7 mph 18.4 mph N/A   Clear
8:35 AM 58.3 °F 52.2 °F 80% 29.98 in 10.0 mi SSE 9.2 mph - N/A   Scattered Clouds
8:55 AM 59.4 °F 52.7 °F 79% 29.99 in 10.0 mi SE 10.4 mph 17.3 mph N/A   Clear
9:15 AM 60.3 °F 52.9 °F 77% 30.00 in 10.0 mi SSE 8.1 mph 17.3 mph N/A   Clear
9:35 AM 61.2 °F 52.9 °F 74% 30.01 in 10.0 mi SSE 13.8 mph 18.4 mph N/A   Clear
9:55 AM 62.4 °F 53.4 °F 72% 30.01 in 10.0 mi SE 10.4 mph 19.6 mph N/A   Clear
10:15 AM 63.5 °F 53.6 °F 70% 30.01 in 10.0 mi SSE 11.5 mph 20.7 mph N/A   Clear
10:35 AM 62.8 °F 53.6 °F 72% 30.01 in 10.0 mi SSE 11.5 mph 18.4 mph N/A   Scattered Clouds
10:55 AM 63.5 °F 53.8 °F 71% 30.01 in 10.0 mi SSE 11.5 mph 17.3 mph N/A   Scattered Clouds
11:15 AM 64.4 °F 54.0 °F 69% 29.99 in 10.0 mi SSE 10.4 mph 17.3 mph N/A   Mostly Cloudy
11:35 AM 64.8 °F 54.0 °F 68% 29.99 in 10.0 mi SSE 11.5 mph 18.4 mph N/A   Overcast
11:55 AM 65.5 °F 54.5 °F 68% 29.99 in 10.0 mi SSE 13.8 mph 17.3 mph N/A   Overcast
12:15 PM 67.5 °F 54.5 °F 63% 29.98 in 10.0 mi SSE 11.5 mph 19.6 mph N/A   Mostly Cloudy
12:35 PM 66.0 °F 54.5 °F 66% 29.98 in 10.0 mi SSE 9.2 mph 16.1 mph N/A   Overcast
12:55 PM 67.5 °F 54.7 °F 64% 29.96 in 10.0 mi SSE 10.4 mph 17.3 mph N/A   Mostly Cloudy
1:15 PM 67.1 °F 54.7 °F 64% 29.96 in 10.0 mi SE 13.8 mph 18.4 mph N/A   Scattered Clouds
1:35 PM 66.6 °F 54.9 °F 66% 29.95 in 10.0 mi SE 13.8 mph 20.7 mph N/A   Mostly Cloudy
1:55 PM 66.2 °F 54.9 °F 67% 29.95 in 10.0 mi SE 12.7 mph 17.3 mph N/A   Mostly Cloudy
2:15 PM 65.7 °F 55.0 °F 69% 29.95 in 10.0 mi SE 9.2 mph 19.6 mph N/A   Overcast
2:35 PM 64.6 °F 54.9 °F 71% 29.95 in 10.0 mi SE 8.1 mph - N/A   Overcast
2:55 PM 64.0 °F 54.9 °F 72% 29.96 in 10.0 mi SE 12.7 mph 17.3 mph N/A   Overcast
3:15 PM 64.4 °F 55.0 °F 72% 29.96 in 10.0 mi SE 11.5 mph - N/A   Overcast
3:35 PM 65.3 °F 55.4 °F 70% 29.96 in 10.0 mi SE 9.2 mph 16.1 mph N/A   Overcast
3:55 PM 65.7 °F 55.0 °F 69% 29.96 in 10.0 mi SSE 10.4 mph 16.1 mph N/A   Overcast
4:15 PM 65.5 °F 55.2 °F 69% 29.97 in 10.0 mi SSE 10.4 mph 16.1 mph N/A   Overcast
4:35 PM 65.3 °F 54.9 °F 69% 29.97 in 10.0 mi SSE 8.1 mph 16.1 mph N/A   Mostly Cloudy
4:55 PM 64.4 °F 55.4 °F 73% 29.97 in 10.0 mi SE 10.4 mph - N/A   Clear
5:15 PM 63.3 °F 55.4 °F 75% 29.97 in 10.0 mi SE 6.9 mph - N/A   Clear
5:35 PM 62.4 °F 55.4 °F 78% 29.97 in 10.0 mi SE 10.4 mph - N/A   Clear
5:55 PM 61.3 °F 55.6 °F 81% 29.98 in 10.0 mi East 8.1 mph - N/A   Scattered Clouds
6:15 PM 60.4 °F 55.6 °F 84% 29.99 in 10.0 mi ESE 9.2 mph 17.3 mph N/A   Clear
6:35 PM 59.9 °F 55.6 °F 86% 29.99 in 10.0 mi ESE 8.1 mph 16.1 mph N/A   Scattered Clouds
6:55 PM 59.5 °F 55.4 °F 86% 30.00 in 10.0 mi ESE 11.5 mph 17.3 mph N/A   Scattered Clouds
7:15 PM 59.4 °F 55.4 °F 87% 30.00 in 10.0 mi ESE 9.2 mph 17.3 mph N/A   Scattered Clouds
7:35 PM 59.9 °F 55.4 °F 85% 30.00 in 10.0 mi SE 12.7 mph 18.4 mph N/A   Mostly Cloudy
7:55 PM 59.9 °F 55.6 °F 86% 30.01 in 10.0 mi SE 11.5 mph 16.1 mph N/A   Mostly Cloudy
8:15 PM 60.1 °F 55.6 °F 85% 30.01 in 10.0 mi SE 8.1 mph - N/A   Overcast
8:35 PM 60.1 °F 55.4 °F 85% 30.01 in 10.0 mi SE 8.1 mph - N/A   Overcast
8:55 PM 59.9 °F 55.6 °F 86% 30.01 in 10.0 mi SE 10.4 mph - N/A   Mostly Cloudy
9:15 PM 59.9 °F 56.3 °F 88% 30.01 in 10.0 mi SE 11.5 mph 18.4 mph N/A   Scattered Clouds
9:35 PM 60.4 °F 56.8 °F 88% 30.01 in 10.0 mi SE 9.2 mph - N/A   Mostly Cloudy
9:55 PM 60.8 °F 57.2 °F 88% 30.01 in 10.0 mi SE 9.2 mph - N/A   Overcast
10:15 PM 60.8 °F 57.6 °F 89% 30.01 in 10.0 mi SE 11.5 mph 17.3 mph N/A   Overcast
10:35 PM 60.4 °F 57.7 °F 91% 30.01 in 10.0 mi SE 9.2 mph 17.3 mph N/A   Overcast
10:55 PM 60.1 °F 57.7 °F 92% 30.01 in 10.0 mi ESE 9.2 mph - N/A   Overcast
11:15 PM 60.3 °F 57.7 °F 91% 30.01 in 10.0 mi ESE 9.2 mph 17.3 mph N/A   Overcast
11:35 PM 60.3 °F 57.7 °F 91% 30.00 in 10.0 mi SE 10.4 mph 16.1 mph N/A   Overcast
11:55 PM 60.3 °F 57.9 °F 92% 30.00 in 10.0 mi SE 5.8 mph - N/A   Overcast